Regional Weather Roundup
Issued by NWS

Home | Current Version | Previous Version | Text Only | Print | Product List | Glossary On
Versions: 1 2 3 4 5 6 7 8 9 10 11 12 13 14 15 16 17 18 19 20 21 22 23 24 25 26 27 28 29 30 31 32 33 34 35 36 37 38 39 40 41 42 43 44 45 46 47 48 49
000
ASUS43 KMPX 130110
RWRMN
WEATHER ROUNDUP FOR MINNESOTA
NATIONAL WEATHER SERVICE TWIN CITIES/CHANHASSEN MN
800 PM CDT WED AUG 12 2020


NOTE: "FAIR" INDICATES FEW OR NO CLOUDS BELOW 12,000 FEET WITH NO
SIGNIFICANT WEATHER AND/OR OBSTRUCTIONS TO VISIBILITY. N/A MEANS
CURRENT SKY AND/OR WEATHER CONDITIONS ARE NOT AVAILABLE.

MNZ060>063-068>070-130200-
   Twin Cities Metro

CITY           SKY/WX    TMP DP  RH WIND       PRES   REMARKS
TWIN CITIES    CLOUDY    66  63  90 E12       30.00F
ST PAUL        MOCLDY    67  61  81 E6        30.01F
CRYSTAL        CLOUDY    66  62  87 NE7       30.00F
BLAINE         MOCLDY    64  63  94 NE8       30.02S
LAKEVILLE      DRIZZLE   70  57  64 E8        30.00F
EDEN PRAIRIE   CLOUDY    66  62  87 NE10      29.99F
SOUTH ST PAUL  PTCLDY    66  63  89 CALM      30.01F
LAKE ELMO      MOCLDY    63  63 100 NE3       30.03F
$$
MNZ001>005-007-008-013>017-022>024-027-028-130200-
   Northwest Minnesota

CITY           SKY/WX    TMP DP  RH WIND       PRES   REMARKS
BEMIDJI        CLEAR     69  61  75 SE9       30.01R
HALLOCK        CLEAR     81  64  57 SE13G18   29.89S
ROSEAU         CLEAR     79 N/A N/A S13       29.95S
WARROAD        CLEAR     75  68  78 SE8       29.96S
THIEF RVR FALL CLEAR     74  64  71 SE12      29.97R
CROOKSTON      CLEAR     75  64  69 SE13      29.94R
FOSSTON        CLEAR     70  59  68 SE8       29.98S
DETROIT LAKES    N/A     70  61  73 SE10      29.98S
MOORHEAD       PTCLDY    73  61  64 SE9       29.93S
PARK RAPIDS    CLEAR     70  59  68 SE7       30.00R
MAHNOMEN       FAIR      71  62  71 SE9       29.97S
$$
MNZ006-009>011-018-025>026-130200-
   North Central Minnesota

CITY           SKY/WX    TMP DP  RH WIND       PRES   REMARKS
BAUDETTE       MOCLDY    77  65  66 S8        29.99R
FLAG ISLAND      N/A     75  66  73 SE8       29.95S
INTL FALLS     CLEAR     74  59  59 S3        30.01R
WASKISH        CLEAR     72  63  73 CALM      30.01R
BIG FORK       PTCLDY    66  61  82 CALM      30.09S
LONGVILLE      CLEAR     68  61  77 CALM      30.02S
GRAND RAPIDS   PTCLDY    67  60  78 SE5       30.07S
CRANE LAKE     CLEAR     73  61  64 S5        30.06R
ORR            CLEAR     70  61  73 CALM      30.03R
COOK           PTCLDY    72  61  68 S6        30.05S
WALKER         FAIR      68  61  78 SE6       30.01S
$$
MNZ012-019>021-037-130200-
   Northeast Minnesota

CITY           SKY/WX    TMP DP  RH WIND       PRES   REMARKS
DULUTH         CLOUDY    62  52  69 SE13      30.09S
ELY            MOCLDY    72  55  56 S7        30.07R
HIBBING        PTCLDY    68  59  73 S6        30.06R
EVELETH        PTCLDY    69  62  77 SE3       30.07F
DULUTH HARBOR  LGT RAIN  64  57  77 NW9       30.09R
TWO HARBORS    CLOUDY    64  54  68 SW5       30.09R
SILVER BAY       N/A     68  59  73 SW3       30.09R
GRAND MARAIS     N/A     68  56  65 CALM      30.06R
G MARAIS ARPRT MOCLDY    66  57  72 CALM      30.11R
$$
MNZ029>031-032-039>041-046>048-054>057-064-130200-
   West Central Minnesota

CITY           SKY/WX    TMP DP  RH WIND       PRES   REMARKS
FERGUS FALLS   CLOUDY    70  63  78 SE9       29.94S
WHEATON        PTCLDY    70  63  78 E13G21    29.92S
MORRIS         CLEAR     68  64  88 E13G23    29.93S
ALEXANDRIA     CLOUDY    66  62  87 E14       29.98S
ELBOW LAKE     CLOUDY    68  64  86 SE12G21   29.94F
WADENA         MOCLDY    64  61  88 SE8       29.98S
GLENWOOD       MOCLDY    66  63  88 E13       29.98R
APPLETON       PTCLDY    72  64  78 E13G21    29.90S
BENSON         PTCLDY    68  63  83 SE10G18   29.94R
ORTONVILLE     PTCLDY    73  68  83 E15       29.89S
MADISON        PTCLDY    79  73  83 E10       29.89S
WILLMAR        FAIR      70  63  78 E13       29.98S
$$
MNZ033>034-036-042>043-049>051-058-059-130200-
   Central Minnesota

CITY           SKY/WX    TMP DP  RH WIND       PRES   REMARKS
ST CLOUD       CLOUDY    63  61  93 E7        30.00S
SAUK CENTRE    CLOUDY    64  62  91 E12G18    29.98F
PAYNESVILLE    CLOUDY    67  64  91 E10       29.99S
AITKIN         PTCLDY    63  57  82 SE8       30.03R
PINE RIVER     CLEAR     64  59  82 SE7       30.04S
BRAINERD       PTCLDY    68  61  78 SE8       30.01S
STAPLES        MOCLDY    64  61  88 SE5       29.99S
LONG PRAIRIE   CLOUDY    63  61  94 SE7       30.00S
LITTLE FALLS   CLOUDY    61  61 100 E6        30.01R
CAMP RIPLEY    MOCLDY    64  62  94 SE5       30.01S
LITCHFIELD     CLOUDY    68  66  94 E12       29.99S
BUFFALO        CLOUDY    64  60  86 MISG      30.01F
MAPLE LAKE       N/A     65  64  94 E8        30.01F
HUTCHINSON     CLOUDY    67  65  91 E14       29.99S
$$
MNZ037-044-045-052-053-130200-
   East Central Minnesota

CITY           SKY/WX    TMP DP  RH WIND       PRES   REMARKS
PRINCETON      CLOUDY    63  61  94 E7        30.02F
MORA           DRIZZLE   59  59 100 E6        30.05F
CAMBRIDGE      CLOUDY    63  55  77 E6        30.03F
RUSH CITY      CLOUDY    60  58  94 E9G18     30.05S
MOOSE LAKE     CLOUDY    63  59  88 CALM      30.05R
HINCKLEY       RAIN      61  61 100 E7        30.05F
CLOQUET        MOCLDY    61  57  88 E6        30.09S
MCGREGOR       PTCLDY    63  59  88 SE7       30.06S
$$
MNZ071>073-080-081-089-090-097-098-130200-
   Southwest Minnesota

CITY           SKY/WX    TMP DP  RH WIND       PRES   REMARKS
MONTEVIDEO     MOCLDY    73  66  78 SE15      29.92R
GRANITE FALLS  PTCLDY    79  73  83 E9        29.92S
CANBY          MOCLDY    81  74  78 E3        29.90R
MARSHALL       MOCLDY    82  74  76 SE7       29.90R
REDWOOD FALLS  PTCLDY    77  70  79 E7        29.92R
OLIVIA         CLOUDY    75  68  78 SE9G17    29.94R
PIPESTONE        N/A     79  72  78 S8        29.92R
WINDOM         CLEAR     81  70  69 S7        29.93R
WORTHINGTON    CLEAR     79  71  76 S13       29.94R
JACKSON        CLEAR     79  70  73 S8        29.95S
SLAYTON        CLEAR     79  67  66 S6        29.94R
$$
MNZ065>067-074>077-082>085-091>093-130200-
   South Central Minnesota

CITY           SKY/WX    TMP DP  RH WIND       PRES   REMARKS
MANKATO        PTCLDY    76  71  85 SE12      29.96S
NEW ULM        MOCLDY    77  70  78 E8        29.95R
ST JAMES         N/A     79  72  78 SE8       29.92S
FAIRMONT       CLEAR     79  73  82 S13       29.94F
GLENCOE        CLOUDY    65  63  91 NE9       29.98F
FARIBAULT      PTCLDY    75  66  73 E3        29.99S
OWATONNA       PTCLDY    77  66  69 SE8       30.00R
ALBERT LEA     MOCLDY    75  68  78 SE8       30.00R
$$
MNZ078>079-086>088-094>096-130200-
   Southeast Minnesota

CITY           SKY/WX    TMP DP  RH WIND       PRES   REMARKS
ROCHESTER      CLEAR     71  63  75 SE7       30.03R
RED WING       PTCLDY    72  64  78 E7        30.00F
STANTON        CLOUDY    72  66  81 SE7       29.98F
DODGE CENTER   CLEAR     72  63  73 E5        30.03R
WINONA         PTCLDY    75  64  69 CALM      30.03R
AUSTIN         CLEAR     75  66  73 SE5       30.01R
PRESTON        CLEAR     74  61  63 SE8       30.03S
$$
ABBREVIATIONS USED IN REMARKS
   TC - TEMPERATURES IN CELSIUS
  WCI - WIND CHILL INDEX
   HX - HEAT INDEX
  VSB - VISIBILITY
$$




USA.gov is the U.S. government's official web portal to all federal, state and local government web resources and services.